Location: Oberwangen
(47.4286°N, 8.9679°E)
Time: 04:48:02
(UTC+00:00)

BREEZE-M DEB (TANK) - Pass Details

Date: 20 June 2021
Orbit: 333 x 16574 km, 49.3° (Epoch: 28 July)

Event Time Altitude Azimuth Distance (km) Brightness Sun altitude
Rises 21:35:59 0° 230° (SW) 8,783 8.3 -14.9°
Reaches altitude 10° 21:44:23 10° 228° (SW) 5,552 7.2 -15.5°
Maximum altitude 21:55:19 50° 157° (SSE) 1,148 3.5 -16.3°
Drops below altitude 10° 21:58:47 10° 81° (E) 1,805 4.8 -16.5°
Sets 22:00:11 0° 74° (ENE) 2,431 5.6 -16.5°
